Mosinee, WI

3:59 AM CST on February 11, 2016 (GMT -0600)
Central Wisconsin

Weather History for KCWA - February, 2014

Change the Weather History Date:

Saturday, February 8, 2014

  Actual Average Record
Temperature  
Mean Temperature 2 °F -  
Max Temperature 12 °F 25 °F 46 °F (2002)
Min Temperature -9 °F 9 °F -9 °F (2014)
Degree Days  
Heating Degree Days 64    
Moisture  
Dew Point -1 °F    
Average Humidity 87    
Maximum Humidity 100    
Minimum Humidity 67    
Precipitation  
Precipitation 0.00 in - - ()
Sea Level Pressure  
Sea Level Pressure 30.11 in    
Wind  
Wind Speed 1 mph (SW)    
Max Wind Speed 5 mph    
Max Gust Speed -    
Visibility 10 miles    
Events Snow    
Averages and records for this station are not official NWS values.
T = Trace of Precipitation, MM = Missing Value Source: NWS Daily Summary

Daily Weather History Graph

Daily Weather History Graph

Search for Another Location

Airport or City:

Trip Planner

Search our weather history database for the weather conditions in past years. The results will help you decide how hot, cold, wet, or windy it might be!

Date:

Astronomy

Feb. 08, 2014 Rise Set
Actual Time 7:09 AM CST 5:17 PM CST
Civil Twilight 6:38 AM CST 5:47 PM CST
Nautical Twilight 6:04 AM CST 6:22 PM CST
Astronomical Twilight 5:30 AM CST 6:56 PM CST
Moon 12:07 PM CST (2/8) 2:25 AM CST (2/8)
Length of Visible Light 11h 09m
Length of Day
10h 08m
Waxing Gibbous, 69% of the Moon is Illuminated
Feb 8
Waxing Gibbous
Feb 14
Full
Feb 22
Last Quarter
Mar 1
New
Mar 8
First Quarter

Hourly Weather History & Observations

Time (CST) Temp. Windchill Dew Point Humidity Pressure Visibility Wind Dir Wind Speed Gust Speed Precip Events Conditions
12:15 AM -4.0 °F - -7.6 °F 85% 30.16 in 10.0 mi Calm Calm - N/A   Clear
12:35 AM -4.0 °F - -9.4 °F 78% 30.15 in 10.0 mi Calm Calm - N/A   Clear
12:55 AM -5.8 °F - -9.4 °F 84% 30.15 in 10.0 mi Calm Calm - N/A   Clear
1:15 AM -5.8 °F - -7.6 °F 92% 30.15 in 10.0 mi Calm Calm - N/A   Clear
1:35 AM -5.8 °F - -7.6 °F 92% 30.15 in 10.0 mi Calm Calm - N/A   Clear
1:55 AM -5.8 °F - -7.6 °F 92% 30.15 in 10.0 mi Calm Calm - N/A   Clear
2:15 AM -4.0 °F - -7.6 °F 85% 30.14 in 10.0 mi Calm Calm - N/A   Clear
2:35 AM -5.8 °F - -7.6 °F 92% 30.14 in 10.0 mi Calm Calm - N/A   Clear
2:55 AM -4.0 °F -14.6 °F -7.6 °F 85% 30.15 in 10.0 mi SSW 4.6 mph - N/A   Clear
3:15 AM -5.8 °F -14.5 °F -7.6 °F 92% 30.14 in 10.0 mi SW 3.5 mph - N/A   Clear
3:35 AM -5.8 °F -14.5 °F -9.4 °F 84% 30.15 in 10.0 mi SSW 3.5 mph - N/A   Clear
3:55 AM -7.6 °F - -9.4 °F 92% 30.15 in 10.0 mi Calm Calm - N/A   Clear
4:15 AM -5.8 °F - -9.4 °F 84% 30.14 in 10.0 mi Calm Calm - N/A   Clear
4:35 AM -5.8 °F - -9.4 °F 84% 30.14 in 10.0 mi Calm Calm - N/A   Clear
5:55 AM -9.4 °F - -13.0 °F 84% 30.13 in 10.0 mi Calm Calm - N/A   Clear
6:45 AM -9.4 °F - -13.0 °F 84% 30.14 in 10.0 mi Calm Calm - N/A   Clear
7:45 AM -7.6 °F - -11.2 °F 84% 30.14 in 10.0 mi Calm Calm - N/A   Clear
8:45 AM -7.6 °F - -11.2 °F 84% 30.13 in 10.0 mi Calm Calm - N/A   Clear
9:45 AM -2.2 °F - -5.8 °F 85% 30.14 in 10.0 mi Calm Calm - N/A   Clear
10:50 AM 3.2 °F - 1.4 °F 92% 30.14 in 10.0 mi Calm Calm - N/A   Clear
11:45 AM 6.8 °F - 6.8 °F 100% 30.12 in 10.0 mi Calm Calm - N/A   Clear
12:45 PM 10.4 °F 4.0 °F 3.2 °F 73% 30.09 in 10.0 mi South 3.5 mph - N/A   Clear
1:45 PM 12.2 °F 6.1 °F 3.2 °F 67% 30.06 in 10.0 mi SSW 3.5 mph - N/A   Overcast
2:45 PM 12.2 °F 6.1 °F 3.2 °F 67% 30.06 in 10.0 mi Variable 3.5 mph - N/A   Overcast
3:50 PM 12.2 °F - 5.0 °F 73% 30.07 in 10.0 mi Calm Calm - N/A   Overcast
4:45 PM 12.2 °F - 6.8 °F 79% 30.07 in 7.0 mi Calm Calm - N/A Snow Light Snow
5:45 PM 10.4 °F - 6.8 °F 85% 30.08 in 7.0 mi Calm Calm - N/A Snow Light Snow
6:45 PM 10.4 °F - 6.8 °F 85% 30.08 in 7.0 mi Calm Calm - N/A Snow Light Snow
7:50 PM 8.6 °F - 6.8 °F 92% 30.07 in 7.0 mi Calm Calm - N/A Snow Light Snow
8:50 PM 8.6 °F - 6.8 °F 92% 30.08 in 10.0 mi Calm Calm - N/A   Overcast
9:15 PM 8.6 °F - 6.8 °F 92% 30.08 in 10.0 mi Calm Calm - N/A   Overcast
9:35 PM 8.6 °F - 6.8 °F 92% 30.07 in 10.0 mi Calm Calm - N/A   Overcast
9:45 PM 8.6 °F - 6.8 °F 92% 30.08 in 10.0 mi Calm Calm - N/A   Overcast
9:55 PM 8.6 °F 2.0 °F 8.6 °F 100% 30.08 in 10.0 mi WNW 3.5 mph - N/A   Overcast
10:15 PM 10.4 °F 4.0 °F 8.6 °F 92% 30.08 in 10.0 mi West 3.5 mph - N/A   Overcast
10:35 PM 10.4 °F - 8.6 °F 92% 30.07 in 10.0 mi Calm Calm - N/A   Overcast
10:55 PM 8.6 °F - 6.8 °F 92% 30.07 in 10.0 mi Calm Calm - N/A   Overcast
11:15 PM 10.4 °F - 8.6 °F 92% 30.07 in 10.0 mi Calm Calm - N/A   Overcast
11:35 PM 10.4 °F 4.0 °F 8.6 °F 92% 30.07 in 10.0 mi West 3.5 mph - N/A   Overcast
11:55 PM 10.4 °F 4.0 °F 8.6 °F 92% 30.07 in 10.0 mi West 3.5 mph - N/A   Overcast